Regional Weather Roundup
Issued by NWS Northern Indiana

Current Version | Previous Version | Text Only | Print | Product List | Glossary On
Versions: 1 2 3 4 5 6 7 8 9 10 11 12 13 14 15 16 17 18 19 20 21 22 23 24 25 26 27 28 29 30 31 32 33 34 35 36 37 38 39 40 41 42 43 44 45 46 47 48 49 50
000
ASUS43 KIWX 281100
RWRIWX

KIWX WEATHER ROUNDUP
NATIONAL WEATHER SERVICE NORTHERN INDIANA
700 AM EDT SAT MAY 28 2016

NOTE: "FAIR" INDICATES FEW OR NO CLOUDS BELOW 12,000 FEET WITH NO
SIGNIFICANT WEATHER AND/OR OBSTRUCTIONS TO VISIBILITY.

* THESE STATIONS ARE NOT UNDER NWS QUALITY CONTROL. THEY ALSO MAY NOT
  REPORT WEATHER SUCH AS PRECIPITATION OR FOG.

INZ001>027-281200-
NORTHERN INDIANA

CITY           SKY/WX    TMP DP  RH WIND       PRES   REMARKS
GARY*          MOCLDY    73  70  88 S10G23    29.89S
SOUTH BEND     CLOUDY    74  63  68 S9        29.94R
GOSHEN         CLOUDY    71  64  78 SE10      29.96R
ANGOLA*          N/A     70  63  78 S6        29.99R
FORT WAYNE     MOCLDY    71  64  78 S7        30.00R

$$
INZ028>050-281200-
CENTRAL INDIANA

CITY           SKY/WX    TMP DP  RH WIND       PRES   REMARKS
LAFAYETTE      CLOUDY    73  63  70 S7        29.95R
KOKOMO*        CLOUDY    72  63  73 S7        29.98R
MUNCIE*        LGT RAIN  73  63  70 S9        30.02R
INDIANAPOLIS   CLOUDY    71  65  81 S10       29.98R

$$
MIZ043>046-050>051-056>058-064>065-071>073-077>080-281200-
SOUTHWEST LOWER MICHIGAN

CITY           SKY/WX    TMP DP  RH WIND       PRES   REMARKS
BATTLE CREEK   CLOUDY    69  63  81 S9        29.98R
BENTON HARBOR  CLOUDY    73  62  68 S8        29.92R
COLDWATER*     MOCLDY    70  63  78 S5        29.99R
HILLSDALE*     PTCLDY    67  60  78 SE3       30.02R
HOLLAND        CLOUDY    70  63  78 SE9       29.92S
GRAND RAPIDS   CLOUDY    70  62  76 S6        29.95R
KALAMAZOO      CLOUDY    71  61  70 S7        29.96S
STURGIS*       CLOUDY    71  64  78 S7        29.97S
THREE RIVERS*  FAIR      73  63  71 S9        29.96S

$$
OHZ001>008-015>018-024>025-281200-
NORTHWEST OHIO

CITY           SKY/WX    TMP DP  RH WIND       PRES   REMARKS
DEFIANCE       CLEAR     71  62  73 S6        30.01R
FINDLAY        CLEAR     70  60  70 SE9       30.03R
TOLEDO EXPRESS CLEAR     68  62  81 CALM      30.01R
TOLEDO METCALF CLEAR     68  61  78 SE6       30.03R
LIMA           CLEAR     69  63  81 SE8       30.03R

$$
AND FOR LAKE MICHIGAN COASTAL AND OPEN LAKE BUOY OBSERVATIONS

STATION/POSITION TEMP    WIND        PRES    VSBY  WAVE
                 AIR SEA DIR/SP/G                  HT/PER
                 (F)     (DEG/KT/KT) (MB)    (MI)  (FT/S)
CALUMET HARBOR    73     170/ 11/ 19 1011.0R
MICHIGAN CITY     73     150/ 10/ 13   N/A
BURNS HARBOR      71     170/  6/ 20 1012.5S
SAINT JOSEPH      71     150/  2/  4 1013.9R
SOUTH LAKE BUOY   56 50  140/ 10/ 12 1011.4          1/ 3
4 MI NW BRIDGMAN  68 61  140/ 10/ 12   N/A           1/ 3
MICHIGAN CITY     68 58  170/ 10/ 14   N/A           1

$$
&&




USA.gov is the U.S. government's official web portal to all federal, state and local government web resources and services.